[[[{"header":{"parameterUnit":"kt","parameterCategory":2,"dx":1,"dy":1,"la1":30.253999710083008,"la2":30.299108505249023,"lo1":-89.0895004272461,"lo2":-89.04439544677734,"nx":28,"ny":28,"refTime":"2022-10-16T21:00:00:Z","depth":"0","parameterNumber":2,"parameterNumberName":"U-component_of_CURRENTS"},"data":[0.173,0.212,0.214,0.2465,0.2529,0.2634,0.2652,0.267,0.2734,0.2833,0.2871,0.2908,0.3215,0.4019,0.4397,0.4472,0.3913,0.4046,0.3696,0.3877,0.3805,0.3737,0.3698,0.4405,0.4405,0.3062,0.3053,0.3047,0.13,0.1423,0.1761,0.2006,0.216,0.2095,0.2263,0.2319,0.2497,0.2681,0.2874,0.3187,0.3721,0.4085,0.4553,0.4528,0.4087,0.4424,0.3687,0.3474,0.3893,0.389,0.4649,0.4649,0.465,0.465,0.465,0.465,0.0527,0.0821,0.1094,0.1382,0.1557,0.1694,0.1868,0.2011,0.2271,0.25,0.2666,0.2932,0.3425,0.3966,0.4076,0.431,0.3803,0.3928,0.378,0.3365,0.3197,0.3569,0.4395,0.4393,0.4391,0.439,0.4389,0,-0.0089,-0.0025,0.0326,0.0634,0.0886,0.113,0.1396,0.1564,0.1705,0.1948,0.2314,0.2556,0.3162,0.3456,0.3785,0.3718,0.3028,0.3364,0.3199,0.2832,0.2375,0.2157,0.2221,0.3001,0.2991,0.2984,0.2978,0.2974,-0.091,-0.0578,-0.0224,-0.0029,0.0146,0.053,0.0749,0.0884,0.1119,0.1499,0.1729,0.2207,0.2473,0.296,0.3003,0.3084,0.2591,0.3125,0.2647,0.2484,0.2317,0.1872,0.1673,0.2867,0.2881,0.2892,0.2901,0,-0.1333,-0.1259,-0.0721,-0.0396,-0.0318,0.0069,0.0314,0.0636,0.0814,0.1209,0.1333,0.1555,0.1906,0.1889,0.2034,0.1851,0.1959,0.2047,0.2064,0.2103,0.2207,0.2044,0.2397,0.225,0.2457,0.247,0.2482,0,-0.1904,-0.154,-0.1355,-0.1061,-0.0583,-0.0501,-0.0016,0.0148,0.0404,0.071,0.071,0.1006,0.0934,0.1165,0.0963,0.1248,0.1215,0.1078,0.1114,0.1109,0.1132,0.11,0.0934,0.078,0.0776,0.0773,0.077,0,-0.235,-0.2017,-0.1593,-0.1463,-0.1108,-0.0906,-0.0745,-0.0493,-0.0289,0.0076,0.0269,0.048,0.0697,0.0668,0.0622,0.0348,0.0904,0.054,0.0852,0.087,0.1052,0.1076,0.1533,0.0766,0.0765,0.0764,0.0763,0,-0.2737,-0.2508,-0.2065,-0.1654,-0.1547,-0.136,-0.093,-0.0776,-0.0526,-0.0438,-0.027,-0.0243,0.0017,-0.0269,-0.0004,-0.0179,-0.0191,-0.0204,-0.0188,0.018,-0.0003,0.0466,0.0974,0.0853,-0.014,-0.0148,-0.0154,0,-0.3046,-0.2665,-0.2648,-0.2236,-0.1953,-0.1945,-0.1744,-0.158,-0.1465,-0.1165,-0.1139,-0.084,-0.1112,-0.0919,-0.0831,-0.0718,-0.0564,-0.0843,-0.0517,-0.0505,-0.0165,0.0284,0.0388,0.0826,-0.0249,-0.0239,-0.0232,0,-0.3255,-0.2995,-0.2957,-0.2714,-0.2585,-0.2429,-0.2301,-0.205,-0.1797,-0.1812,-0.1451,-0.1359,-0.1321,-0.1213,-0.119,-0.1046,-0.0732,-0.1154,-0.1147,-0.0968,-0.0286,0.0095,0.0194,-0.0764,-0.0752,-0.0743,-0.0307,0,-0.3297,-0.3142,-0.3086,-0.2856,-0.2785,-0.2637,-0.2535,-0.2458,-0.2406,-0.2294,-0.2058,-0.1983,-0.1728,-0.1749,-0.1736,-0.14,-0.145,-0.1525,-0.1527,-0.1336,-0.1188,-0.1128,-0.1879,-0.1882,-0.1885,-0.1887,0,0,-0.3462,-0.3258,-0.3259,-0.3124,-0.2997,-0.3001,-0.2817,-0.2764,-0.262,-0.2497,-0.2595,-0.2267,-0.2226,-0.1883,-0.1833,-0.1862,-0.1777,-0.1815,-0.1486,-0.1442,-0.14,-0.1245,-0.1185,-0.1892,-0.1893,-0.1894,-0.1894,0,-0.3418,-0.3386,-0.3282,-0.3203,-0.3088,-0.3001,-0.2992,-0.2863,-0.2801,-0.2656,-0.2591,-0.2464,-0.2343,-0.2166,-0.2075,-0.192,-0.188,-0.1956,-0.1728,-0.1518,-0.147,-0.1428,-0.1266,-0.121,-0.1901,-0.19,-0.19,0,-0.344,-0.3348,-0.3304,-0.3182,-0.3105,-0.2971,-0.2998,-0.2934,-0.2803,-0.2796,-0.2623,-0.2589,-0.2475,-0.2309,-0.2254,-0.2265,-0.1929,-0.211,-0.2097,-0.2015,-0.1799,-0.1747,-0.17,-0.2282,-0.2283,-0.2284,0,0,-0.3407,-0.3332,-0.3206,-0.3159,-0.3118,-0.3017,-0.2984,-0.293,-0.2834,-0.2802,-0.2722,-0.2623,-0.2508,-0.2436,-0.2368,-0.2228,-0.2135,-0.2152,-0.2134,-0.2119,-0.2031,-0.1812,-0.1763,-0.2287,-0.2287,-0.2287,0,0,-0.3389,-0.3225,-0.3181,-0.312,-0.3043,-0.2917,-0.2902,-0.2867,-0.2786,-0.2771,-0.2692,-0.2669,-0.2559,-0.2529,-0.2576,-0.2338,-0.2421,-0.241,-0.2312,-0.229,-0.2273,-0.2178,-0.2561,0,0,0,0,0,-0.3254,-0.3238,-0.3199,-0.3174,-0.3013,-0.2927,-0.2909,-0.2847,-0.2839,-0.2835,-0.2736,-0.2734,-0.2513,-0.2553,-0.2534,-0.2427,-0.2327,-0.232,-0.2313,-0.2162,-0.2139,-0.2119,0,0,0,0,0,0,-0.3243,-0.3209,-0.32,-0.3069,-0.3034,-0.2926,-0.2882,-0.2863,-0.2838,-0.2835,-0.2743,-0.2729,-0.2663,-0.2561,-0.2544,-0.2442,-0.2566,-0.2324,-0.2318,-0.2313,-0.2154,-0.2135,-0.2119,0,0,0,0,0,-0.3234,-0.3207,-0.2965,-0.307,-0.3039,-0.2948,-0.2883,-0.2867,-0.285,-0.2747,-0.2732,-0.2813,-0.2664,-0.2646,-0.2551,-0.2449,-0.2578,-0.2572,-0.232,-0.2315,-0.2311,-0.2145,0,0,0,0,0,0,-0.3228,-0.3189,-0.2958,-0.2947,-0.3086,-0.2954,-0.293,-0.2872,-0.2763,-0.2748,-0.281,-0.2808,-0.2663,-0.265,-0.2637,-0.245,-0.2587,-0.2581,-0.2577,-0.2317,-0.2313,-0.2309,0,0,0,0,0,0,-0.3203,-0.3179,-0.2952,-0.2976,-0.2967,-0.2961,-0.2939,-0.2871,-0.2763,-0.2832,-0.2827,-0.2811,-0.2695,-0.2652,-0.2642,-0.2538,-0.2594,-0.2588,-0.2584,-0.2582,-0.2313,-0.2311,0,0,0,0,0,0,-0.3193,-0.3172,-0.2978,-0.2971,-0.2963,-0.2833,-0.2901,-0.2747,-0.2767,-0.2838,-0.277,-0.2771,-0.2699,-0.2687,-0.2646,-0.2546,-0.254,-0.2594,-0.259,-0.2587,-0.2585,0,0,0,0,0,0,0,-0.3184,-0.3333,-0.3027,-0.2967,-0.2961,-0.2847,-0.2843,-0.284,-0.2768,-0.2769,-0.277,-0.2771,-0.2629,-0.2622,-0.2615,-0.2553,0,0,-0.2595,-0.2592,0,0,0,0,0,0,0,0,-0.3341,-0.3335,-0.3027,-0.3025,-0.3023,-0.2846,-0.2844,-0.2841,-0.2768,-0.2769,-0.277,-0.277,-0.2627,-0.2622,-0.2616,0,0,0,0,0,0,0,0,0,0,0,0,0,0,0,-0.3027,-0.3025,0,-0.2846,-0.2844,-0.2841,-0.2768,-0.2769,-0.2769,-0.277,-0.2625,-0.2621,-0.2617,0,0,0,0,0,0,0,0,0,0,0,0,0,0,0,0,0,0,0,0,0,0,0,0,0,0,0,0,0,0,0,0,0,0,0,0,0,0,0,0,0,0,0,0,0,0,0,0,0,0,0,0,0,0,0,0,0,0,0,0,0,0,0,0,0,0,0,0,0]}],[{"header":{"parameterUnit":"kt","parameterCategory":2,"dx":1,"dy":1,"la1":30.253999710083008,"la2":30.299108505249023,"lo1":-89.0895004272461,"lo2":-89.04439544677734,"nx":28,"ny":28,"refTime":"2022-10-16T21:00:00:Z","depth":"0","parameterNumber":3,"parameterNumberName":"V-component_of_CURRENTS"},"data":[0.1901,0.2093,0.2118,0.2321,0.2386,0.2512,0.2583,0.2689,0.2855,0.3189,0.3455,0.3678,0.3644,0.2471,0.159,0.1365,0.1104,0.0846,0.0851,0.1051,0.1074,0.1095,0.0972,0.0868,0.0867,0.0711,0.0708,0.0705,0.1722,0.1787,0.1974,0.2107,0.2232,0.2238,0.2432,0.2527,0.2685,0.2949,0.3116,0.3387,0.3107,0.2765,0.2201,0.1674,0.1526,0.1405,0.125,0.1423,0.1747,0.165,0.1689,0.1689,0.169,0.169,0.169,0.169,0.1367,0.1524,0.1621,0.1791,0.1927,0.2068,0.2221,0.2382,0.2601,0.2851,0.2959,0.3167,0.316,0.2792,0.2381,0.1867,0.1905,0.1739,0.1608,0.1456,0.1489,0.1698,0.1895,0.1894,0.1893,0.1892,0.1891,0,0.1064,0.1071,0.1264,0.1415,0.1581,0.1795,0.2009,0.216,0.2357,0.2551,0.2802,0.2935,0.2918,0.281,0.2475,0.2243,0.1889,0.1963,0.1756,0.1624,0.1343,0.1426,0.1702,0.2045,0.2044,0.2044,0.2044,0.2043,0.0641,0.0793,0.0994,0.1108,0.1223,0.1482,0.1646,0.1834,0.2023,0.2349,0.2501,0.2669,0.2779,0.2659,0.2352,0.2121,0.1892,0.1967,0.1814,0.152,0.1324,0.1122,0.1227,0.2038,0.2038,0.2039,0.2039,0,0.0426,0.0469,0.0766,0.0977,0.1042,0.1267,0.1511,0.1736,0.191,0.2202,0.2293,0.2466,0.2504,0.2329,0.2297,0.2039,0.1862,0.1839,0.1856,0.1819,0.1444,0.1286,0.1331,0.1468,0.1803,0.1802,0.18,0,0.0157,0.0376,0.0488,0.0636,0.0942,0.1015,0.1339,0.1483,0.1702,0.1924,0.1968,0.2145,0.2048,0.2055,0.1852,0.1728,0.1891,0.1519,0.1486,0.1545,0.1527,0.1394,0.1234,0.1731,0.1729,0.1727,0.1726,0,-0.007,0.0152,0.0386,0.0464,0.0689,0.0833,0.0948,0.114,0.1295,0.1559,0.1706,0.1816,0.1879,0.1849,0.1612,0.1528,0.1686,0.1571,0.14,0.1385,0.1526,0.1508,0.1628,0.1724,0.1723,0.1722,0.1722,0,-0.0243,-0.0115,0.0132,0.0401,0.0471,0.0571,0.087,0.0962,0.1151,0.1221,0.1335,0.1324,0.1423,0.1188,0.1284,0.1184,0.1132,0.1072,0.1081,0.0961,0.0776,0.1109,0.1305,0.1098,0.1052,0.1047,0.1042,0,-0.0396,-0.0195,-0.0177,0.0056,0.0208,0.024,0.0357,0.0472,0.0541,0.0727,0.07,0.0845,0.0612,0.0687,0.0721,0.0722,0.0808,0.0626,0.0841,0.0848,0.0762,0.0917,0.1011,0.1222,0.0978,0.0985,0.099,0,-0.0523,-0.0392,-0.0372,-0.0241,-0.0172,-0.0074,0.0005,0.0176,0.0342,0.0279,0.052,0.0457,0.0466,0.0496,0.0444,0.0508,0.0686,0.0427,0.0432,0.0575,0.0992,0.0841,0.0869,0.0686,0.0695,0.0702,0.0939,0,-0.0538,-0.0478,-0.0441,-0.0356,-0.0298,-0.0197,-0.0159,-0.0109,-0.0101,-0.004,0.0083,0.0028,0.0151,0.0086,0.0043,0.0245,0.0217,0.0169,0.0208,0.0286,0.0357,0.0397,-0.0106,-0.0108,-0.011,-0.0111,0,0,-0.0628,-0.056,-0.0584,-0.0513,-0.0426,-0.044,-0.0321,-0.0303,-0.0242,-0.0151,-0.026,-0.0135,-0.0162,0.0015,-0.0012,-0.0065,0.0004,0.0017,0.018,0.0212,0.0242,0.032,0.036,-0.0114,-0.0115,-0.0115,-0.0116,0,-0.0616,-0.0647,-0.061,-0.0561,-0.0494,-0.0448,-0.0433,-0.0359,-0.0322,-0.028,-0.027,-0.0241,-0.0219,-0.0151,-0.0121,-0.0097,-0.0012,-0.0132,0.0016,0.0159,0.0193,0.0224,0.0306,0.0344,-0.0119,-0.0119,-0.0119,0,-0.0639,-0.0622,-0.0622,-0.0582,-0.0533,-0.0456,-0.0457,-0.0395,-0.0326,-0.0344,-0.0272,-0.0282,-0.0259,-0.0209,-0.0192,-0.0197,-0.0016,-0.0136,-0.0131,-0.0036,0.0116,0.0151,0.0182,-0.0192,-0.0191,-0.0191,0,0,-0.0627,-0.0626,-0.0574,-0.0575,-0.0546,-0.0479,-0.0443,-0.0408,-0.0365,-0.0348,-0.0317,-0.03,-0.0263,-0.0238,-0.022,-0.0173,-0.0093,-0.0137,-0.0134,-0.0131,-0.0035,0.0116,0.0147,-0.0189,-0.0189,-0.0189,0,0,-0.0606,-0.057,-0.0578,-0.0577,-0.0524,-0.0437,-0.0403,-0.0376,-0.0341,-0.0343,-0.0306,-0.0296,-0.0259,-0.0261,-0.0244,-0.0182,-0.021,-0.0212,-0.0128,-0.0124,-0.0121,-0.0002,-0.0193,0,0,0,0,0,-0.0572,-0.0578,-0.0587,-0.0581,-0.0523,-0.0446,-0.043,-0.0378,-0.0371,-0.0348,-0.0337,-0.0296,-0.0261,-0.0244,-0.0229,-0.0162,-0.0165,-0.0169,-0.0173,-0.0058,-0.0054,-0.0051,0,0,0,0,0,0,-0.057,-0.0567,-0.0584,-0.051,-0.0495,-0.0447,-0.0433,-0.0417,-0.0373,-0.0369,-0.0302,-0.0294,-0.0265,-0.0247,-0.0235,-0.0171,-0.0197,-0.0166,-0.017,-0.0173,-0.0057,-0.0054,-0.0051,0,0,0,0,0,-0.0568,-0.0565,-0.0504,-0.0507,-0.0494,-0.0421,-0.0434,-0.0421,-0.0383,-0.0327,-0.0316,-0.0347,-0.0265,-0.0253,-0.0239,-0.0177,-0.0205,-0.0201,-0.0169,-0.0172,-0.0174,-0.0055,0,0,0,0,0,0,-0.0566,-0.0535,-0.0498,-0.0488,-0.0518,-0.0421,-0.0412,-0.0424,-0.0343,-0.0331,-0.0371,-0.037,-0.0265,-0.0255,-0.0246,-0.018,-0.0212,-0.0207,-0.0205,-0.0171,-0.0173,-0.0175,0,0,0,0,0,0,-0.0535,-0.0529,-0.0493,-0.0511,-0.0503,-0.0421,-0.0414,-0.0368,-0.0344,-0.0392,-0.0387,-0.0372,-0.0291,-0.0257,-0.025,-0.0178,-0.0217,-0.0212,-0.021,-0.0208,-0.0173,-0.0175,0,0,0,0,0,0,-0.053,-0.0524,-0.0513,-0.0507,-0.05,-0.039,-0.0378,-0.033,-0.0337,-0.0397,-0.0339,-0.034,-0.0294,-0.0285,-0.0253,-0.0184,-0.0179,-0.0217,-0.0214,-0.0212,-0.021,0,0,0,0,0,0,0,-0.0525,-0.0599,-0.0554,-0.0503,-0.0497,-0.0403,-0.04,-0.0397,-0.0337,-0.0338,-0.0339,-0.034,-0.024,-0.0236,-0.0231,-0.0188,0,0,-0.0217,-0.0215,0,0,0,0,0,0,0,0,-0.0598,-0.0598,-0.0554,-0.0552,-0.0551,-0.0402,-0.04,-0.0398,-0.0338,-0.0338,-0.0339,-0.0339,-0.0239,-0.0235,-0.0232,0,0,0,0,0,0,0,0,0,0,0,0,0,0,0,-0.0554,-0.0552,0,-0.0402,-0.04,-0.0399,-0.0338,-0.0338,-0.0339,-0.0339,-0.0238,-0.0235,-0.0232,0,0,0,0,0,0,0,0,0,0,0,0,0,0,0,0,0,0,0,0,0,0,0,0,0,0,0,0,0,0,0,0,0,0,0,0,0,0,0,0,0,0,0,0,0,0,0,0,0,0,0,0,0,0,0,0,0,0,0,0,0,0,0,0,0,0,0,0,0]}]],[[{"header":{"parameterUnit":"kt","parameterCategory":2,"dx":1,"dy":1,"la1":30.253999710083008,"la2":30.299108505249023,"lo1":-89.0895004272461,"lo2":-89.04439544677734,"nx":28,"ny":28,"refTime":"2022-10-16T21:00:00:Z","depth":"2","parameterNumber":2,"parameterNumberName":"U-component_of_CURRENTS"},"data":[-0.0985,-0.093,-0.0923,-0.0817,-0.0802,-0.0747,-0.0746,-0.0673,-0.055,-0.0357,-0.0196,-0.0163,-0.0216,-0.0044,-0.0099,0.0008,-0.0181,-0.0011,-0.0198,-0.0459,-0.0486,-0.0702,-0.0676,0,0,0,0,0,-0.1053,-0.1041,-0.1018,-0.0995,-0.0952,-0.102,-0.1064,-0.104,-0.0993,-0.0843,-0.0759,-0.0621,-0.0431,-0.0372,-0.0171,-0.0138,-0.0273,-0.0176,-0.0378,-0.0414,-0.0445,-0.0403,-0.0096,-0.0094,-0.0093,-0.0091,0,0,-0.1189,-0.1148,-0.1183,-0.1161,-0.1177,-0.118,-0.1167,-0.1284,-0.1258,-0.122,-0.1266,-0.1071,-0.1062,-0.0578,-0.0479,-0.0408,-0.0519,-0.0565,-0.0588,-0.0612,-0.0569,-0.0592,-0.0311,-0.0311,-0.0311,-0.0312,-0.0312,0,-0.1318,-0.1336,-0.1373,-0.1354,-0.1402,-0.1417,-0.1535,-0.1508,-0.167,-0.1625,-0.1584,-0.1488,-0.1255,-0.1011,-0.0757,-0.0706,-0.0888,-0.0763,-0.0967,-0.1018,-0.1062,-0.1141,-0.1178,-0.0869,-0.0872,-0.0875,-0.0877,-0.0878,-0.148,-0.1483,-0.1577,-0.1584,-0.1691,-0.1747,-0.177,-0.1905,-0.1921,-0.1929,-0.1862,-0.1721,-0.1575,-0.1299,-0.114,-0.0961,-0.1065,-0.0858,-0.0924,-0.1174,-0.1246,-0.128,-0.1311,-0.0916,-0.0911,-0.0908,-0.0904,0,-0.1568,-0.1704,-0.1748,-0.1928,-0.1966,-0.1962,-0.2111,-0.207,-0.2121,-0.2015,-0.1976,-0.193,-0.1778,-0.167,-0.152,-0.1448,-0.1296,-0.1207,-0.1255,-0.1285,-0.1336,-0.1359,-0.1014,-0.1006,-0.0999,-0.0994,-0.0989,0,-0.1779,-0.1828,-0.203,-0.2063,-0.206,-0.2287,-0.2252,-0.2272,-0.2272,-0.2174,-0.2166,-0.2039,-0.1958,-0.1819,-0.1765,-0.1545,-0.1596,-0.1451,-0.1484,-0.1518,-0.1514,-0.1878,-0.1914,-0.1577,-0.1577,-0.1578,-0.1578,0,-0.1836,-0.2067,-0.2121,-0.2204,-0.2399,-0.243,-0.2525,-0.2521,-0.2472,-0.2376,-0.2326,-0.212,-0.202,-0.1921,-0.1817,-0.1899,-0.1642,-0.1784,-0.1585,-0.1583,-0.1615,-0.1619,-0.1579,-0.1579,-0.1579,-0.1579,-0.1579,0,-0.2032,-0.2136,-0.2244,-0.2395,-0.2449,-0.2553,-0.2582,-0.2626,-0.2541,-0.2535,-0.2386,-0.234,-0.2096,-0.2157,-0.1933,-0.2022,-0.1978,-0.1957,-0.1957,-0.1878,-0.2049,-0.1902,-0.1656,-0.2068,-0.2071,-0.2075,-0.2077,0,-0.2044,-0.219,-0.235,-0.2473,-0.2562,-0.2714,-0.2746,-0.2773,-0.2808,-0.2743,-0.2595,-0.2507,-0.248,-0.2396,-0.2267,-0.2211,-0.2091,-0.2188,-0.2264,-0.2265,-0.2055,-0.1813,-0.1805,-0.1716,-0.2117,-0.2113,-0.211,0,-0.2054,-0.2283,-0.231,-0.2391,-0.267,-0.2707,-0.2796,-0.2826,-0.2772,-0.2858,-0.2738,-0.2631,-0.2554,-0.254,-0.2481,-0.2384,-0.2171,-0.2494,-0.2497,-0.2388,-0.2059,-0.1898,-0.1857,-0.2227,-0.2221,-0.2216,-0.2142,0,-0.2187,-0.2306,-0.2336,-0.2537,-0.2626,-0.2709,-0.2824,-0.2883,-0.2959,-0.2966,-0.2877,-0.2886,-0.2837,-0.2818,-0.282,-0.2602,-0.2707,-0.2778,-0.2823,-0.2712,-0.2718,-0.2692,-0.3079,-0.3084,-0.3089,-0.3092,0,0,-0.2199,-0.23,-0.2394,-0.2514,-0.2576,-0.2687,-0.2771,-0.2837,-0.2971,-0.2932,-0.3064,-0.3029,-0.3056,-0.2888,-0.2878,-0.2956,-0.2984,-0.2971,-0.2829,-0.2799,-0.2772,-0.2764,-0.2734,-0.31,-0.3102,-0.3103,-0.3104,0,-0.223,-0.2359,-0.2393,-0.2488,-0.2607,-0.2685,-0.2703,-0.2829,-0.2902,-0.2996,-0.3024,-0.2978,-0.3143,-0.3085,-0.3082,-0.3024,-0.3069,-0.3102,-0.2946,-0.2869,-0.2834,-0.2803,-0.2787,-0.2757,-0.3115,-0.3114,-0.3114,0,-0.2297,-0.2383,-0.2374,-0.2526,-0.2586,-0.2681,-0.2712,-0.2791,-0.2849,-0.2943,-0.3082,-0.3094,-0.3165,-0.3193,-0.3222,-0.3279,-0.3167,-0.3255,-0.3239,-0.3193,-0.3117,-0.308,-0.3046,-0.3451,-0.3451,-0.345,0,0,-0.2356,-0.2396,-0.2491,-0.2531,-0.2583,-0.2657,-0.2693,-0.2792,-0.2883,-0.2962,-0.3057,-0.3162,-0.317,-0.3226,-0.3296,-0.3304,-0.3311,-0.3279,-0.3264,-0.3249,-0.3196,-0.3117,-0.3084,-0.3448,-0.3448,-0.3448,0,0,-0.2349,-0.2431,-0.2485,-0.2575,-0.263,-0.2703,-0.2753,-0.2803,-0.2949,-0.3003,-0.3086,-0.3122,-0.3163,-0.3267,-0.3234,-0.3288,-0.3381,-0.3387,-0.3152,-0.3135,-0.312,-0.3028,-0.3303,0,0,0,0,0,-0.2337,-0.2393,-0.2439,-0.2456,-0.2603,-0.2651,-0.2674,-0.2815,-0.2855,-0.2935,-0.3049,-0.3085,-0.3318,-0.329,-0.3298,-0.3212,-0.3422,-0.3427,-0.3431,-0.3133,-0.3113,-0.3097,0,0,0,0,0,0,-0.2344,-0.237,-0.2433,-0.2498,-0.2527,-0.2653,-0.2749,-0.2791,-0.2859,-0.2892,-0.306,-0.3087,-0.318,-0.3287,-0.3294,-0.321,-0.3301,-0.3424,-0.3428,-0.3431,-0.3126,-0.311,-0.3097,0,0,0,0,0,-0.2349,-0.2369,-0.2593,-0.2499,-0.2525,-0.2676,-0.2757,-0.2793,-0.2902,-0.2987,-0.3026,-0.3007,-0.3173,-0.3191,-0.3292,-0.3205,-0.3296,-0.3298,-0.3426,-0.343,-0.3432,-0.3118,0,0,0,0,0,0,-0.2352,-0.2437,-0.26,-0.2609,-0.2546,-0.2681,-0.272,-0.2794,-0.3003,-0.3033,-0.2932,-0.2953,-0.3167,-0.3182,-0.3194,-0.3199,-0.3292,-0.3295,-0.3296,-0.3429,-0.3431,-0.3433,0,0,0,0,0,0,-0.2423,-0.2446,-0.2606,-0.2659,-0.2677,-0.2683,-0.2718,-0.272,-0.3003,-0.2945,-0.2964,-0.2939,-0.3121,-0.3175,-0.3185,-0.3184,-0.329,-0.3292,-0.3294,-0.3295,-0.3431,-0.3433,0,0,0,0,0,0,-0.2433,-0.2453,-0.2661,-0.2674,-0.2691,-0.2821,-0.2688,-0.2841,-0.3033,-0.2936,-0.3051,-0.3059,-0.3108,-0.3125,-0.3178,-0.3171,-0.318,-0.329,-0.3291,-0.3292,-0.3293,0,0,0,0,0,0,0,-0.2441,-0.2299,-0.2513,-0.2686,-0.2702,-0.2678,-0.2684,-0.269,-0.3035,-0.3042,-0.3049,-0.3055,-0.3276,-0.3279,-0.3281,-0.316,0,0,-0.3289,-0.3291,0,0,0,0,0,0,0,0,-0.2292,-0.2297,-0.2513,-0.2513,-0.2512,-0.2679,-0.2684,-0.2689,-0.3036,-0.3042,-0.3047,-0.3053,-0.3277,-0.3279,-0.3281,0,0,0,0,0,0,0,0,0,0,0,0,0,0,0,-0.2513,-0.2513,0,-0.268,-0.2684,-0.2688,-0.3037,-0.3042,-0.3046,-0.305,-0.3277,-0.3279,-0.3281,0,0,0,0,0,0,0,0,0,0,0,0,0,0,0,0,0,0,0,0,0,0,0,0,0,0,0,0,0,0,0,0,0,0,0,0,0,0,0,0,0,0,0,0,0,0,0,0,0,0,0,0,0,0,0,0,0,0,0,0,0,0,0,0,0,0,0,0,0]}],[{"header":{"parameterUnit":"kt","parameterCategory":2,"dx":1,"dy":1,"la1":30.253999710083008,"la2":30.299108505249023,"lo1":-89.0895004272461,"lo2":-89.04439544677734,"nx":28,"ny":28,"refTime":"2022-10-16T21:00:00:Z","depth":"2","parameterNumber":3,"parameterNumberName":"V-component_of_CURRENTS"},"data":[-0.1031,-0.1041,-0.1049,-0.1085,-0.1111,-0.1118,-0.1085,-0.0915,-0.0709,-0.0412,-0.0146,0.0052,0.0113,0.0203,0.0129,0.016,0.018,0.0092,-0.003,0.0191,0.0211,0.0231,0.028,0,0,0,0,0,-0.1027,-0.1035,-0.1055,-0.1077,-0.1099,-0.1109,-0.1071,-0.0982,-0.084,-0.06,-0.0405,-0.0203,-0.003,0.0076,0.0143,0.0098,0.016,0.0024,0.0199,0.0214,0.023,0.0257,0.0064,0.0065,0.0067,0.0068,0,0,-0.1021,-0.1024,-0.1046,-0.1063,-0.1081,-0.1094,-0.1049,-0.0972,-0.0873,-0.0638,-0.0612,-0.0339,-0.0239,0.0026,0.005,0.0064,0.0068,0.0106,0.0121,0.0138,0.0148,0.009,-0.0068,-0.0068,-0.0068,-0.0068,-0.0068,0,-0.1022,-0.1024,-0.1021,-0.1064,-0.1053,-0.1037,-0.0963,-0.0954,-0.076,-0.0662,-0.0534,-0.0421,-0.0271,-0.0055,0.004,0.0077,0.0257,0.0194,0.03,0.0481,0.0429,0.0425,0.0439,0.0338,0.0341,0.0342,0.0343,0.0344,-0.1008,-0.1025,-0.1022,-0.1031,-0.1012,-0.093,-0.0876,-0.0713,-0.0639,-0.0457,-0.0423,-0.0293,-0.0133,-0.0016,0.0163,0.0278,0.0354,0.0252,0.0383,0.0458,0.045,0.0462,0.0472,0.0369,0.0366,0.0363,0.0361,0,-0.0998,-0.1019,-0.1015,-0.0949,-0.0933,-0.0853,-0.0727,-0.0636,-0.0452,-0.0331,-0.0268,-0.0022,0.0095,0.0285,0.043,0.05,0.0554,0.0527,0.0501,0.0479,0.0498,0.0502,0.0385,0.0379,0.0374,0.037,0.0367,0,-0.0994,-0.0988,-0.0985,-0.0985,-0.0908,-0.0777,-0.0636,-0.0453,-0.0269,-0.0163,0.0098,0.0172,0.0452,0.0522,0.0647,0.0659,0.0717,0.0718,0.0696,0.0728,0.0716,0.0889,0.0891,0.0887,0.0888,0.0889,0.089,0,-0.0994,-0.0976,-0.096,-0.0944,-0.0827,-0.0719,-0.059,-0.0317,-0.0192,0.007,0.0121,0.0389,0.048,0.0591,0.0731,0.0784,0.079,0.0866,0.0747,0.0734,0.0734,0.072,0.0891,0.0891,0.0892,0.0892,0.0892,0,-0.0987,-0.1001,-0.0967,-0.0896,-0.086,-0.0763,-0.0501,-0.0332,-0.0051,0.0083,0.0286,0.0427,0.0648,0.0683,0.0852,0.0863,0.0893,0.0932,0.0928,0.0801,0.0786,0.0567,0.0639,0.0842,0.0842,0.0843,0.0843,0,-0.1002,-0.1,-0.0972,-0.0898,-0.0876,-0.0731,-0.0538,-0.0333,-0.015,0.0019,0.0271,0.0483,0.0623,0.0725,0.0817,0.094,0.0956,0.099,0.0929,0.0925,0.0683,0.0772,0.0788,0.0654,0.085,0.0849,0.0849,0,-0.1015,-0.1042,-0.1034,-0.1016,-0.0895,-0.0849,-0.0613,-0.0419,-0.0292,-0.0079,0.008,0.0508,0.0539,0.0724,0.0892,0.0949,0.0959,0.0965,0.0966,0.0776,0.0928,0.0795,0.0777,0.0997,0.0997,0.0998,0.0854,0,-0.1058,-0.1049,-0.1047,-0.097,-0.0913,-0.0886,-0.0723,-0.0597,-0.0453,-0.0338,-0.0033,0.0169,0.0435,0.0613,0.0727,0.0951,0.0908,0.0941,0.082,0.0965,0.0894,0.089,0.0935,0.0935,0.0935,0.0934,0,0,-0.1058,-0.1057,-0.1048,-0.1023,-0.0987,-0.092,-0.0866,-0.074,-0.06,-0.0495,-0.0454,0.0016,0.0201,0.0537,0.0682,0.0775,0.0746,0.0779,0.0956,0.0959,0.0961,0.0895,0.0892,0.0934,0.0934,0.0934,0.0934,0,-0.108,-0.1056,-0.1052,-0.1033,-0.0989,-0.0926,-0.0917,-0.0836,-0.0719,-0.0553,-0.0387,-0.0191,0.013,0.0338,0.0499,0.0739,0.0725,0.0914,0.0935,0.0954,0.0957,0.0959,0.0895,0.0892,0.0934,0.0934,0.0934,0,-0.1075,-0.1057,-0.1059,-0.1018,-0.0982,-0.0925,-0.0912,-0.0873,-0.0754,-0.0688,-0.0474,-0.0316,-0.0054,0.0212,0.0342,0.031,0.0624,0.0631,0.064,0.0597,0.0609,0.0617,0.0625,0.0496,0.0494,0.0491,0,0,-0.107,-0.1075,-0.1033,-0.1013,-0.0998,-0.094,-0.0921,-0.0862,-0.0767,-0.0709,-0.0574,-0.0354,-0.0119,-0.0007,0.0183,0.0365,0.032,0.0564,0.0585,0.0601,0.0568,0.0586,0.0597,0.0481,0.0481,0.048,0,0,-0.1061,-0.1038,-0.1004,-0.0978,-0.0948,-0.0894,-0.0875,-0.0834,-0.0713,-0.0664,-0.0526,-0.0478,-0.0231,-0.0134,-0.029,0.0236,0.0173,0.0203,0.0118,0.0145,0.0166,0.0074,-0.0201,0,0,0,0,0,-0.1064,-0.1058,-0.1029,-0.1019,-0.0944,-0.0925,-0.0913,-0.0828,-0.0781,-0.076,-0.0611,-0.0543,-0.0115,-0.0256,-0.0224,-0.0032,0.0348,0.0371,0.0394,0.0333,0.0361,0.0385,0,0,0,0,0,0,-0.106,-0.1048,-0.103,-0.0981,-0.0964,-0.0923,-0.0844,-0.082,-0.0778,-0.0759,-0.0576,-0.054,-0.0432,-0.0265,-0.0238,-0.0054,-0.021,0.0357,0.0377,0.0395,0.0342,0.0365,0.0385,0,0,0,0,0,-0.1057,-0.1047,-0.0938,-0.098,-0.0965,-0.087,-0.084,-0.0819,-0.0763,-0.062,-0.0582,-0.0697,-0.0439,-0.0402,-0.0249,-0.0066,-0.0228,-0.0219,0.037,0.0386,0.04,0.0354,0,0,0,0,0,0,-0.1055,-0.1019,-0.0934,-0.0928,-0.0947,-0.0868,-0.0847,-0.0818,-0.0619,-0.059,-0.0735,-0.0722,-0.0443,-0.0414,-0.0387,-0.007,-0.0243,-0.0233,-0.0227,0.0382,0.0394,0.0405,0,0,0,0,0,0,-0.1025,-0.1014,-0.0931,-0.0894,-0.0882,-0.0866,-0.0848,-0.0759,-0.0613,-0.074,-0.0728,-0.0731,-0.0443,-0.0423,-0.0401,-0.0271,-0.0255,-0.0245,-0.0238,-0.0234,0.0392,0.0402,0,0,0,0,0,0,-0.1019,-0.101,-0.0894,-0.0885,-0.0875,-0.0795,-0.0779,-0.0673,-0.0685,-0.0745,-0.0674,-0.0669,-0.0452,-0.0429,-0.0412,-0.0292,-0.0276,-0.0254,-0.0248,-0.0243,-0.024,0,0,0,0,0,0,0,-0.1015,-0.1091,-0.098,-0.0878,-0.0869,-0.0877,-0.0875,-0.0872,-0.0684,-0.0679,-0.0675,-0.0671,-0.0309,-0.0298,-0.0288,-0.0309,0,0,-0.0255,-0.0251,0,0,0,0,0,0,0,0,-0.1094,-0.1091,-0.098,-0.098,-0.0979,-0.0877,-0.0875,-0.0872,-0.0683,-0.0679,-0.0676,-0.0673,-0.0306,-0.0298,-0.0289,0,0,0,0,0,0,0,0,0,0,0,0,0,0,0,-0.098,-0.098,0,-0.0877,-0.0875,-0.0873,-0.0683,-0.068,-0.0677,-0.0674,-0.0304,-0.0297,-0.029,0,0,0,0,0,0,0,0,0,0,0,0,0,0,0,0,0,0,0,0,0,0,0,0,0,0,0,0,0,0,0,0,0,0,0,0,0,0,0,0,0,0,0,0,0,0,0,0,0,0,0,0,0,0,0,0,0,0,0,0,0,0,0,0,0,0,0,0,0]}]],[[{"header":{"parameterUnit":"kt","parameterCategory":2,"dx":1,"dy":1,"la1":30.253999710083008,"la2":30.299108505249023,"lo1":-89.0895004272461,"lo2":-89.04439544677734,"nx":28,"ny":28,"refTime":"2022-10-16T21:00:00:Z","depth":"4","parameterNumber":2,"parameterNumberName":"U-component_of_CURRENTS"},"data":[-0.0765,-0.0761,-0.0751,-0.0678,-0.0642,-0.0644,-0.0671,-0.0712,-0.069,-0.0745,-0.0697,-0.0729,-0.0644,-0.0724,-0.0556,-0.0545,-0.0641,-0.0509,-0.0506,-0.0728,-0.0748,-0.0766,-0.0753,0,0,0,0,0,-0.0817,-0.0793,-0.0789,-0.0764,-0.0791,-0.0786,-0.0841,-0.087,-0.0911,-0.0856,-0.0876,-0.0809,-0.0703,-0.0693,-0.0588,-0.0649,-0.0683,-0.0524,-0.0712,-0.074,-0.0763,-0.0743,0,0,0,0,0,0,-0.0893,-0.0876,-0.0883,-0.087,-0.089,-0.0874,-0.0893,-0.0883,-0.0889,-0.0927,-0.091,-0.0875,-0.0894,-0.078,-0.0734,-0.0664,-0.069,-0.0704,-0.0727,-0.0749,-0.0723,-0.0687,-0.0461,0,0,0,0,0,-0.0942,-0.097,-0.0958,-0.0958,-0.0964,-0.0959,-0.0965,-0.0964,-0.0991,-0.1042,-0.0998,-0.095,-0.0889,-0.0863,-0.0781,-0.0781,-0.0922,-0.0847,-0.0861,-0.0956,-0.0944,-0.0967,-0.0988,-0.0847,-0.085,-0.0852,-0.0853,0,-0.1022,-0.1008,-0.102,-0.102,-0.1021,-0.1012,-0.1017,-0.1044,-0.1053,-0.1076,-0.1078,-0.1054,-0.106,-0.0944,-0.0979,-0.0931,-0.0938,-0.0903,-0.1005,-0.0981,-0.0996,-0.1012,-0.1026,-0.0871,-0.087,-0.0868,-0.0867,0,-0.1061,-0.1075,-0.1055,-0.1055,-0.1058,-0.1041,-0.1069,-0.1069,-0.1093,-0.1107,-0.1111,-0.1149,-0.112,-0.1144,-0.1165,-0.1142,-0.1114,-0.1067,-0.1254,-0.1271,-0.1054,-0.1061,-0.0901,-0.0894,-0.0888,-0.0884,-0.088,0,-0.1112,-0.1102,-0.1105,-0.1094,-0.1077,-0.1094,-0.1094,-0.1101,-0.1133,-0.1142,-0.1178,-0.1191,-0.126,-0.126,-0.1293,-0.1224,-0.1292,-0.1219,-0.1215,-0.1435,-0.1441,-0.1425,-0.1431,-0.1382,-0.1383,-0.1383,-0.1384,0,-0.1136,-0.1141,-0.1128,-0.1131,-0.1139,-0.1137,-0.1149,-0.1175,-0.1192,-0.1205,-0.122,-0.1249,-0.1282,-0.1297,-0.1342,-0.1387,-0.1349,-0.1421,-0.1272,-0.1263,-0.143,-0.1435,-0.1385,-0.1385,-0.1385,-0.1385,-0.1385,0,-0.1169,-0.1157,-0.116,-0.1142,-0.1148,-0.1171,-0.1175,-0.1204,-0.1233,-0.1255,-0.1278,-0.1324,-0.1356,-0.1399,-0.1423,-0.1446,-0.1454,-0.1486,-0.1485,-0.1321,-0.1353,-0.1493,-0.1483,-0.1484,-0.1485,-0.1486,-0.1487,0,-0.1166,-0.1166,-0.1173,-0.1185,-0.1181,-0.1207,-0.1236,-0.1259,-0.1293,-0.1313,-0.1363,-0.141,-0.1456,-0.1482,-0.1494,-0.1549,-0.1529,-0.1564,-0.1529,-0.1527,-0.1369,-0.1318,-0.1571,-0.15,-0.1499,-0.1497,-0.1496,0,-0.1154,-0.1149,-0.1155,-0.1144,-0.1191,-0.1204,-0.1245,-0.1268,-0.1281,-0.1341,-0.1356,-0.1457,-0.1463,-0.1502,-0.1557,-0.1566,-0.1549,-0.1589,-0.1589,-0.1542,-0.1513,-0.1355,-0.1332,-0.1577,-0.1576,-0.1575,-0.1506,0,-0.1121,-0.1123,-0.1137,-0.1163,-0.1184,-0.1208,-0.1255,-0.127,-0.1317,-0.1348,-0.1398,-0.1463,-0.1507,-0.156,-0.16,-0.1616,-0.1613,-0.1636,-0.1613,-0.162,-0.1592,-0.1585,-0.1671,-0.1671,-0.1671,-0.1671,0,0,-0.1107,-0.1103,-0.1119,-0.1135,-0.1158,-0.1204,-0.1225,-0.1263,-0.1327,-0.1332,-0.1365,-0.1473,-0.1525,-0.1579,-0.1599,-0.1635,-0.1622,-0.1625,-0.1632,-0.1628,-0.1624,-0.1597,-0.159,-0.1671,-0.1671,-0.1671,-0.1671,0,-0.1091,-0.1094,-0.1106,-0.1125,-0.117,-0.1201,-0.1215,-0.1272,-0.1295,-0.135,-0.1395,-0.1437,-0.1527,-0.1555,-0.1591,-0.1632,-0.1628,-0.1671,-0.1642,-0.1633,-0.1629,-0.1625,-0.1598,-0.1592,-0.1671,-0.1671,-0.1671,0,-0.1075,-0.1095,-0.1106,-0.1134,-0.1172,-0.1203,-0.1231,-0.1272,-0.1304,-0.1341,-0.1395,-0.1438,-0.1497,-0.1547,-0.1575,-0.1568,-0.1612,-0.1632,-0.1634,-0.1598,-0.1587,-0.1583,-0.158,-0.1614,-0.1614,-0.1614,0,0,-0.107,-0.1077,-0.1123,-0.1141,-0.1158,-0.1216,-0.1244,-0.1269,-0.1317,-0.1334,-0.1376,-0.1428,-0.1483,-0.1508,-0.1547,-0.1592,-0.1568,-0.1624,-0.1627,-0.1629,-0.1595,-0.1584,-0.1581,-0.1612,-0.1612,-0.1612,0,0,-0.1081,-0.1124,-0.1134,-0.1152,-0.1186,-0.1249,-0.1271,-0.1303,-0.134,-0.1352,-0.1397,-0.1408,-0.1463,-0.1483,-0.1462,-0.1552,-0.1543,-0.1548,-0.1535,-0.1539,-0.1541,-0.1489,-0.1476,0,0,0,0,0,-0.1115,-0.1118,-0.1126,-0.1137,-0.1199,-0.1241,-0.1251,-0.1294,-0.1326,-0.1322,-0.1369,-0.1387,-0.1478,-0.1459,-0.1471,-0.1504,-0.1596,-0.1599,-0.1602,-0.1596,-0.16,-0.1603,0,0,0,0,0,0,-0.112,-0.113,-0.1128,-0.1189,-0.1205,-0.1241,-0.127,-0.1281,-0.1325,-0.1328,-0.1379,-0.1387,-0.1406,-0.1455,-0.1466,-0.1497,-0.1472,-0.1597,-0.16,-0.1602,-0.1598,-0.1601,-0.1603,0,0,0,0,0,-0.1124,-0.1133,-0.1213,-0.119,-0.1204,-0.1268,-0.1269,-0.1278,-0.1306,-0.1358,-0.1367,-0.134,-0.1405,-0.1417,-0.1462,-0.1492,-0.1466,-0.1469,-0.1599,-0.1601,-0.1602,-0.1599,0,0,0,0,0,0,-0.1128,-0.1133,-0.1218,-0.1225,-0.1189,-0.1266,-0.1275,-0.1276,-0.1333,-0.1345,-0.1319,-0.1321,-0.1405,-0.1414,-0.1422,-0.1489,-0.146,-0.1464,-0.1466,-0.16,-0.1602,-0.1603,0,0,0,0,0,0,-0.1131,-0.1138,-0.1221,-0.1217,-0.1225,-0.1264,-0.1272,-0.131,-0.1333,-0.1289,-0.1294,-0.1319,-0.14,-0.1412,-0.1419,-0.1477,-0.1456,-0.1459,-0.1462,-0.1463,-0.1601,-0.1603,0,0,0,0,0,0,-0.1135,-0.1142,-0.1215,-0.122,-0.1227,-0.1309,-0.1299,-0.1358,-0.1333,-0.1285,-0.1334,-0.1334,-0.1398,-0.1405,-0.1416,-0.1471,-0.1475,-0.1456,-0.1458,-0.146,-0.1461,0,0,0,0,0,0,0,-0.114,-0.1073,-0.1183,-0.1223,-0.1228,-0.1299,-0.13,-0.1301,-0.1333,-0.1333,-0.1334,-0.1334,-0.1435,-0.1439,-0.1443,-0.1466,0,0,-0.1455,-0.1457,0,0,0,0,0,0,0,0,-0.1072,-0.1073,-0.1183,-0.1185,-0.1187,-0.1299,-0.13,-0.1301,-0.1333,-0.1333,-0.1333,-0.1334,-0.1436,-0.1439,-0.1443,0,0,0,0,0,0,0,0,0,0,0,0,0,0,0,-0.1183,-0.1185,0,-0.1299,-0.13,-0.13,-0.1333,-0.1333,-0.1333,-0.1334,-0.1437,-0.144,-0.1442,0,0,0,0,0,0,0,0,0,0,0,0,0,0,0,0,0,0,0,0,0,0,0,0,0,0,0,0,0,0,0,0,0,0,0,0,0,0,0,0,0,0,0,0,0,0,0,0,0,0,0,0,0,0,0,0,0,0,0,0,0,0,0,0,0,0,0,0,0]}],[{"header":{"parameterUnit":"kt","parameterCategory":2,"dx":1,"dy":1,"la1":30.253999710083008,"la2":30.299108505249023,"lo1":-89.0895004272461,"lo2":-89.04439544677734,"nx":28,"ny":28,"refTime":"2022-10-16T21:00:00:Z","depth":"4","parameterNumber":3,"parameterNumberName":"V-component_of_CURRENTS"},"data":[-0.0817,-0.0855,-0.0868,-0.0905,-0.0934,-0.0982,-0.0988,-0.0979,-0.0895,-0.0858,-0.0765,-0.0728,-0.0589,-0.0643,-0.0455,-0.0442,-0.0574,-0.0366,-0.0363,-0.063,-0.065,-0.0668,-0.0683,0,0,0,0,0,-0.0817,-0.0837,-0.0878,-0.0926,-0.0973,-0.1007,-0.1027,-0.1041,-0.1027,-0.0894,-0.0887,-0.0752,-0.0603,-0.0567,-0.0461,-0.054,-0.058,-0.0421,-0.0651,-0.0643,-0.0665,-0.0672,0,0,0,0,0,0,-0.0817,-0.0836,-0.0888,-0.0938,-0.0993,-0.1013,-0.1042,-0.1012,-0.1008,-0.0966,-0.0896,-0.0809,-0.0784,-0.0663,-0.0583,-0.0515,-0.0545,-0.0586,-0.061,-0.0631,-0.0623,-0.0525,-0.0329,0,0,0,0,0,-0.0821,-0.0848,-0.0892,-0.0953,-0.1004,-0.1053,-0.1106,-0.109,-0.1129,-0.1155,-0.1019,-0.0947,-0.0821,-0.0776,-0.0679,-0.0643,-0.0852,-0.0746,-0.0761,-0.0876,-0.0816,-0.0799,-0.0811,-0.075,-0.0752,-0.0754,-0.0755,0,-0.0821,-0.0849,-0.0934,-0.0966,-0.1015,-0.1083,-0.113,-0.12,-0.1215,-0.1202,-0.1181,-0.1112,-0.1093,-0.0892,-0.0922,-0.0839,-0.0829,-0.0803,-0.0926,-0.0853,-0.0828,-0.0835,-0.0841,-0.0773,-0.0772,-0.077,-0.0769,0,-0.082,-0.087,-0.093,-0.1019,-0.1051,-0.1094,-0.1176,-0.1217,-0.127,-0.1279,-0.1293,-0.1302,-0.1216,-0.1197,-0.1174,-0.1128,-0.106,-0.0984,-0.112,-0.1098,-0.0874,-0.0873,-0.0803,-0.0796,-0.0791,-0.0786,-0.0782,0,-0.0841,-0.0886,-0.0964,-0.0993,-0.1057,-0.1119,-0.1188,-0.1245,-0.1303,-0.1317,-0.1383,-0.135,-0.1403,-0.1347,-0.132,-0.1173,-0.127,-0.1113,-0.1079,-0.128,-0.1277,-0.1253,-0.1246,-0.132,-0.1321,-0.1321,-0.1322,0,-0.0839,-0.0917,-0.0968,-0.0994,-0.1078,-0.1119,-0.1165,-0.1239,-0.1269,-0.1355,-0.1359,-0.1406,-0.1383,-0.1397,-0.1306,-0.1339,-0.1269,-0.1314,-0.1119,-0.1104,-0.1255,-0.1247,-0.1323,-0.1323,-0.1324,-0.1324,-0.1324,0,-0.0863,-0.0897,-0.0961,-0.1037,-0.1055,-0.1097,-0.1166,-0.1214,-0.1282,-0.1309,-0.1341,-0.1341,-0.1359,-0.1336,-0.1323,-0.1328,-0.1293,-0.1274,-0.127,-0.109,-0.1035,-0.1118,-0.1175,-0.1175,-0.1175,-0.1174,-0.1174,0,-0.0844,-0.0898,-0.0931,-0.0994,-0.1026,-0.106,-0.1107,-0.1156,-0.119,-0.1238,-0.1245,-0.1273,-0.124,-0.1241,-0.1266,-0.1246,-0.1251,-0.1257,-0.1202,-0.1198,-0.1048,-0.1067,-0.1279,-0.1171,-0.1171,-0.1171,-0.1172,0,-0.082,-0.089,-0.0895,-0.0924,-0.0968,-0.0994,-0.1043,-0.1096,-0.1134,-0.1158,-0.1205,-0.121,-0.1205,-0.12,-0.1182,-0.1207,-0.1234,-0.1181,-0.1181,-0.1135,-0.1249,-0.1079,-0.1064,-0.127,-0.1272,-0.1273,-0.1169,0,-0.0845,-0.0867,-0.0882,-0.0909,-0.0937,-0.0972,-0.1002,-0.1034,-0.105,-0.1077,-0.1112,-0.1098,-0.1106,-0.111,-0.1087,-0.1138,-0.1093,-0.1105,-0.108,-0.1131,-0.107,-0.1073,-0.1024,-0.1022,-0.1021,-0.102,0,0,-0.081,-0.083,-0.0834,-0.0858,-0.088,-0.0896,-0.0931,-0.0961,-0.0994,-0.1015,-0.1,-0.1017,-0.1004,-0.1031,-0.1046,-0.1034,-0.1017,-0.1024,-0.1097,-0.1106,-0.1114,-0.1061,-0.1065,-0.1018,-0.1018,-0.1017,-0.1017,0,-0.0809,-0.0804,-0.0818,-0.0842,-0.0869,-0.0886,-0.0897,-0.0933,-0.0958,-0.0983,-0.0971,-0.098,-0.0973,-0.0979,-0.0975,-0.1015,-0.0982,-0.101,-0.1053,-0.1086,-0.1097,-0.1106,-0.1056,-0.106,-0.1014,-0.1014,-0.1014,0,-0.0791,-0.0789,-0.0795,-0.0811,-0.0833,-0.0863,-0.0862,-0.0899,-0.093,-0.0898,-0.0935,-0.0924,-0.0906,-0.0924,-0.0927,-0.0911,-0.0944,-0.0933,-0.0938,-0.0938,-0.097,-0.0982,-0.0992,-0.0861,-0.0861,-0.086,0,0,-0.0784,-0.0788,-0.0802,-0.0809,-0.0821,-0.0848,-0.0868,-0.0887,-0.0899,-0.0911,-0.0908,-0.0901,-0.0899,-0.0897,-0.0892,-0.0901,-0.0882,-0.0917,-0.0924,-0.093,-0.0933,-0.0967,-0.0978,-0.0859,-0.0859,-0.0859,0,0,-0.0787,-0.0789,-0.0787,-0.0792,-0.0819,-0.0849,-0.0872,-0.0885,-0.0905,-0.0904,-0.0886,-0.0882,-0.0894,-0.0874,-0.0864,-0.0891,-0.0857,-0.0859,-0.0913,-0.0921,-0.0928,-0.0935,-0.084,0,0,0,0,0,-0.0781,-0.0785,-0.0782,-0.0783,-0.0807,-0.0843,-0.0852,-0.0876,-0.0878,-0.0904,-0.0896,-0.0879,-0.0869,-0.086,-0.0856,-0.0884,-0.0847,-0.0849,-0.0851,-0.0922,-0.0931,-0.0939,0,0,0,0,0,0,-0.0781,-0.0781,-0.0782,-0.0804,-0.081,-0.0843,-0.0839,-0.0847,-0.0876,-0.088,-0.0882,-0.0878,-0.0865,-0.086,-0.0857,-0.0885,-0.0841,-0.0848,-0.085,-0.0852,-0.0925,-0.0933,-0.0939,0,0,0,0,0,-0.0781,-0.0781,-0.0806,-0.0806,-0.0811,-0.0843,-0.0839,-0.0846,-0.0879,-0.086,-0.086,-0.0896,-0.0865,-0.0861,-0.0858,-0.0887,-0.0844,-0.0842,-0.0849,-0.0851,-0.0852,-0.0929,0,0,0,0,0,0,-0.0782,-0.0803,-0.0809,-0.0812,-0.0801,-0.0843,-0.0848,-0.0844,-0.0857,-0.0859,-0.0869,-0.087,-0.0865,-0.0862,-0.0859,-0.089,-0.0845,-0.0844,-0.0843,-0.085,-0.0851,-0.0853,0,0,0,0,0,0,-0.0803,-0.0806,-0.0811,-0.0803,-0.0806,-0.0844,-0.0848,-0.0835,-0.0855,-0.0866,-0.0869,-0.0869,-0.0843,-0.0863,-0.0861,-0.0844,-0.0847,-0.0846,-0.0845,-0.0844,-0.0851,-0.0852,0,0,0,0,0,0,-0.0805,-0.0808,-0.0802,-0.0805,-0.0808,-0.0856,-0.0832,-0.0842,-0.089,-0.0864,-0.089,-0.0889,-0.0841,-0.0841,-0.0862,-0.0846,-0.0844,-0.0847,-0.0846,-0.0845,-0.0845,0,0,0,0,0,0,0,-0.0807,-0.0776,-0.078,-0.0807,-0.0809,-0.0846,-0.0847,-0.0849,-0.089,-0.089,-0.089,-0.089,-0.0853,-0.0852,-0.0851,-0.0848,0,0,-0.0847,-0.0846,0,0,0,0,0,0,0,0,-0.0776,-0.0776,-0.078,-0.0781,-0.0781,-0.0846,-0.0847,-0.0849,-0.089,-0.089,-0.089,-0.089,-0.0853,-0.0852,-0.0851,0,0,0,0,0,0,0,0,0,0,0,0,0,0,0,-0.078,-0.0781,0,-0.0846,-0.0847,-0.0848,-0.089,-0.089,-0.089,-0.089,-0.0853,-0.0852,-0.0851,0,0,0,0,0,0,0,0,0,0,0,0,0,0,0,0,0,0,0,0,0,0,0,0,0,0,0,0,0,0,0,0,0,0,0,0,0,0,0,0,0,0,0,0,0,0,0,0,0,0,0,0,0,0,0,0,0,0,0,0,0,0,0,0,0,0,0,0,0]}]]]